Showing default

HYPERFIELD-1A, 60562

Orbit data source: Space-Track

HYPERFIELD-1A, 60562 is a payload satellite owned by Kuva Space (FI) in SSO that was launched on Fri, 16 Aug 2024 UTC via an FALCON 9 launch vehicle from the Air Force Western Test Range (AFWTR). Payload-class satellites include a variety of spacecraft equipped with specific instruments for various scientific and technological missions. These include communications satellites like Starlink; space stations such as the ISS; scientific satellites like the Hubble; Earth observation satellites from companies like Planet Labs, Umbra, and HawkEye 360; GPS; miniature CubeSats for education and research; and military/defense satellites.

Loading next visibility...
Identifier
60562, 2024-149CY
Orbit
SSO
Country
Flag of FIFI / FIN
Related business
Manufacturer
Kuva Space
Mission
Operational Commercial Imaging
Bus & Motor
CUBESAT 6U, Unknown motor
Mass
12 kg wet, 12 kg dry
Launch date (UTC)
2024-08-16 (2 years ago)
Launch vehicle
FALCON 9
Launch site
Air Force Western Test Range (AFWTR)
Object type
Payload
Rocket body
Debris
Shape & HBR
Box + 2 Pan, 0.2 m
Radar Cross Section
0.092 m², Medium (>0.1 m² and < 1m²)

Expand to show TLE details & history
Last TLE update: 9 hours ago

TLE from 9 hours ago
0 HYPERFIELD-1A
1 60562U 24149CY  26221.73310053  .00003928  00000-0  13116-3 0  9991
2 60562  97.3778 301.6389 0006740 113.9819 246.2129 15.31613313110231
Epoch: 2026-08-09T17:35Z
TLE epoch observation values (Epoch: 2026-08-09T17:35:39.885Z)
Latitude
-0.00002°
Longitude
79.49686°
Altitude
475.97 km
Speed
7.627 km/s
True Right ascension
20h 06m 33s
True Declination
0° 00' 00"
Sunlit
Object was in full shadow at epoch
Visualization orbit readout
Latitude
Unknown
Longitude
Unknown
Altitude
Unknown
Speed
Unknown
Apparent Right ascension
Unknown
Apparent Declination
Unknown
Sunlit
N/A
Visualization observer readout
Local Sidereal Time
16:33:44
Azimuth
Unknown
Elevation
Unknown
Doppler factor
Unknown
Orbital elements
Apogee altitude
472.562 km
Perigee altitude
463.333 km
Semi-major axis
6,846.085 km
Eccentricity
0.00067
Inclination
97.3778°
RAAN
301.6389°
Arg. of periapsis
113.9819°
True anomaly
246.14225°
Mean anomaly
246.2129°
Eccentric anomaly
246.17757°
Mean motion
3.8316 °/min
Orbital period
93.96 mins
BSTAR
0.00013116
Loading maneuver chart data...
Computing Atmospheric mass density...
Loading historical data...
Loading historical data...
Loading historical data...
Loading historical data...
Loading historical data...
Loading historical data...
Loading historical data...

Documentation

Showing up to 5 results
|